This is the latest recevied weather packets stored in our database for station/object OE9FWV. If no packets are shown the sender has not sent any weather packets the latest 10 day(s).
| Time | Temp. | Humidity | Pressure | Rain* | Wind** | Luminosity | Snow |
|---|---|---|---|---|---|---|---|
| 1788139285 | 67° F | 83% | 761.6 mmHg | 0.26 in | - | - | - |
| 1788138077 | 67° F | 78% | 760.2 mmHg | 0 in | - | - | - |
| 1788136256 | 67° F | 79% | 760 mmHg | 0 in | - | - | - |
| 1788135656 | 68° F | 77% | 760.1 mmHg | 0 in | - | - | - |
| 1788135052 | 68° F | 78% | 760.1 mmHg | 0 in | - | - | - |
| 1788133836 | 68° F | 79% | 760 mmHg | 0 in | - | - | - |
| 1788132628 | 68° F | 82% | 760.1 mmHg | 0 in | - | - | - |
| 1788132024 | 68° F | 81% | 760.3 mmHg | 0 in | - | - | - |
| 1788131420 | 68° F | 79% | 760.3 mmHg | 0 in | - | - | - |
| 1788130214 | 67° F | 82% | 760.5 mmHg | 0 in | - | - | - |
| 1788129008 | 67° F | 83% | 760.8 mmHg | 0 in | - | - | - |
| 1788128402 | 67° F | 83% | 760.6 mmHg | 0 in | - | - | - |
| 1788127803 | 67° F | 82% | 760.6 mmHg | 0 in | - | - | - |
| 1788124788 | 68° F | 79% | 760.6 mmHg | 0 in | - | - | - |
| 1788124188 | 69° F | 78% | 760.7 mmHg | 0 in | - | - | - |
| 1788123585 | 69° F | 77% | 760.7 mmHg | 0 in | - | - | - |
| 1788122367 | 70° F | 73% | 760.7 mmHg | 0 in | - | - | - |
| 1788121762 | 70° F | 76% | 760.8 mmHg | 0 in | - | - | - |
| 1788121162 | 71° F | 76% | 760.9 mmHg | 0 in | - | - | - |
| 1788119955 | 70° F | 79% | 760.7 mmHg | 0 in | - | - | - |
| 1788119351 | 71° F | 78% | 760.8 mmHg | 0 in | - | - | - |
| 1788117540 | 73° F | 69% | 760.5 mmHg | 0 in | - | - | - |
| 1788116937 | 73° F | 67% | 760.3 mmHg | 0 in | - | - | - |
| 1788116328 | 74° F | 66% | 760.3 mmHg | 0 in | - | - | - |
| 1788115727 | 75° F | 66% | 760.3 mmHg | 0 in | - | - | - |
* Rain latest hour (hover to see other rain measurements)
** Current wind speed in m/s (hover to see current wind gust speed)